Regional Weather Roundup
Issued by NWS

Home | Current Version | Previous Version | Text Only | Print | Product List | Glossary On
Versions: 1 2 3 4 5 6 7 8 9 10 11 12 13 14 15 16 17 18 19 20 21 22 23 24 25 26 27 28 29 30 31 32 33 34 35 36 37 38 39 40 41 42 43 44 45 46 47 48 49 50
429
ASUS42 KTBW 141616
RWRFL
FLORIDA REGIONAL WEATHER ROUNDUP
NATIONAL WEATHER SERVICE TAMPA BAY RUSKIN FL
1100 AM EST SUN FEB 14 2016

NOTE: "FAIR" INDICATES FEW OR NO CLOUDS BELOW 12,000 FEET WITH NO
SIGNIFICANT WEATHER AND/OR OBSTRUCTIONS TO VISIBILITY.


FLZ001>010-012>015-112-114-115-141700-
PANHANDLE FLORIDA

CITY           SKY/WX    TMP DP  RH WIND       PRES   REMARKS
PENSACOLA      SUNNY     51  30  44 E13       30.30S
MILTON NAS     SUNNY     50  18  28 SE7       30.30
CRESTVIEW      SUNNY     51  15  23 SE9       30.33F
DUKE FIELD     FAIR      51  14  22 E9        30.30F
VALPARAISO     MOSUNNY   49  20  31 E7        30.31S
MARY ESTHER    SUNNY     51  22  32 E10       30.30F
PANAMA CITY    FAIR      50  18  28 NE8       30.31F
TYNDALL AFB    SUNNY     52  19  28 VRB7      30.32S
APALACHICOLA   SUNNY     52  34  50 E9G22     30.33S

STATION/POSITION SKY/WX   TEMP    WIND        PRES    WAVE   SWELL
                          AIR SEA DIR/SP/G            HT/PER HT/PER
                          (F)     (DEG/KT/KT) (MB)    (FT/S) (FT/S)
30.1N   87.6W              57 64  110/ 17/ 23 1024.4R   4/ 5
28.8N   86.0W              60 68  110/ 16/ 19 1025.3R   4/ 5
PANAMA CITY BEAC           46 58  100/  8/ 12 1027.0R
CAPE SAN BLAS    NOT AVBL
TOWER C          NOT AVBL
28.5N   84.5W              57 66  100/ 16/ 19 1025.8S   4/ 6

$$
FLZ011-016>038-118-127-128-134-139-239-141700-
NORTH FLORIDA

CITY           SKY/WX    TMP DP  RH WIND       PRES   REMARKS
MARIANNA       SUNNY     47  16  29 E7        30.34F WCI  44
TALLAHASSEE    PTSUNNY   51  19  28 E9        30.34F
PERRY          MOSUNNY   55  29  36 E8        30.36R
LIVE OAK         N/A     55  34  44 E10       30.37S
CROSS CITY       N/A     56  32  40 VRB6      30.33S
LAKE CITY      FAIR      54  36  50 E8        30.34S
GAINESVILLE    SUNNY     57  38  48 E8        30.33F
WILLISTON      FAIR      61  39  44 NE8       30.33S
KEYSTONE HEIGH FAIR      55  36  47 NE9       30.34S
PALATKA        FAIR      57  43  58 NE10      30.34S
MAYPORT NAS    SUNNY     56  40  55 NE15      30.36R
JACKSONVILLE   PTSUNNY   57  38  48 NE15      30.35S
JAX NAS        PTSUNNY   57  39  51 NE12      30.35S
JAX CRAIG      SUNNY     56  40  55 NE14      30.35R
JAX CECIL      SUNNY     55  39  54 E9        30.36R
FERNANDINA BEA FAIR      57  43  58 NE12G21   30.35R
ST AUGUSTINE   SUNNY     58  45  62 N17       30.34S
PALM COAST     SUNNY     61  46  59 N12G17    30.32F

STATION/POSITION SKY/WX   TEMP    WIND        PRES    WAVE   SWELL
                          AIR SEA DIR/SP/G            HT/PER HT/PER
                          (F)     (DEG/KT/KT) (MB)    (FT/S) (FT/S)
SHELL POINT                47      60/  5/ 10 1026.1
KEATON BEACH               52      90/  9/ 11 1027.0R
CEDAR KEY                  53      90/  9/ 10 1027.0R
FERNANDINA                 54 55   20/ 10/ 17 1027.8S
30.7N   81.3W                 55                N/A     4/ 4
MAYPORT                    53 56   50/ 16/ 19 1027.3R
31.4N   80.9W              47 53   50/ 21/ 25 1028.6R   7/ 6
ST AUGUSTINE               54 56  360/ 17/ 18 1027.6F

$$
FLZ040-043>046-052-053-057-058-063-144-141700-
INTERIOR CENTRAL FLORIDA

CITY           SKY/WX    TMP DP  RH WIND       PRES   REMARKS
OCALA          SUNNY     57  37  47 NE13      30.32S
THE VILLAGES     N/A     61  45  55 N6        30.21F
LEESBURG       SUNNY     60  43  53 E12       30.32F
SANFORD        SUNNY     63  46  54 NE8       30.30F
ORLANDO EXEC   SUNNY     64  46  52 NE10      30.30F
ORLANDO INTL   PTSUNNY   65  45  48 NE10G22   30.30F
KISSIMMEE      SUNNY     63  46  55 NE12      30.30F
WINTER HAVEN   SUNNY     63  45  51 E9        30.30F
LAKELAND       SUNNY     63  45  51 E13       30.29F
BARTOW         SUNNY     61  43  51 NE12      30.29F
OKEECHOBEE     SUNNY     68  52  56 NE8       30.28S

$$
FLZ041-047-054-059-064-141-147-141700-
EAST CENTRAL FLORIDA

CITY           SKY/WX    TMP DP  RH WIND       PRES   REMARKS
DAYTONA BEACH  PTSUNNY   64  47  53 NE10      30.31F
DELAND           N/A     61  46  59 NE8       30.32F
NEW SMYRNA BEA MOSUNNY   63  48  59 N9        30.31R
JFK SPACE CTR  PTSUNNY   66  47  49 E7        30.29S
TITUSVILLE     MOSUNNY   64  45  48 E13       30.30S
CAPE CANAVERAL SUNNY     66  46  46 E9        30.28S
PATRICK AFB    MOSUNNY   67  50  54 NE12      30.29R
MELBOURNE      MOSUNNY   68  49  50 NE10      30.29R
VERO BEACH     PTSUNNY   68  50  52 E9        30.28R
FT PIERCE      SUNNY     67  50  54 E9        30.27R
STUART         MOSUNNY   72  45  37 E13G23    30.28

STATION/POSITION SKY/WX   TEMP    WIND        PRES    WAVE   SWELL
                          AIR SEA DIR/SP/G            HT/PER HT/PER
                          (F)     (DEG/KT/KT) (MB)    (FT/S) (FT/S)
28.5N   80.2W              64 75   70/ 14/ 17 1025.9R
28.9N   78.5W              62 72              1026.1S
TRIDENT PIER               66 62   40/  9/ 13 1025.5R
28.4N   80.5W                 61                N/A     2/ 4
27.5N   80.2W                 68                N/A     4/ 7

$$
FLZ050-056-061-142-242-148-248-149-249-151-251-155-255-
160-260-141700-
WEST CENTRAL FLORIDA

CITY           SKY/WX    TMP DP  RH WIND       PRES   REMARKS
CRYSTAL RIVER  FAIR      59  39  47 E8        30.31F
INVERNESS      FAIR      59  43  55 E7        30.32F
BROOKSVILLE    SUNNY     61  41  47 E13       30.31S
ZEPHYRHILLS    FAIR      64  42  45 NE9       30.30S
CLEARWATER AIR FAIR      59  41  51 E10       30.29S
ST PETE CLEARW SUNNY     59  43  55 NE7       30.29F
TAMPA INTL     PTSUNNY   61  42  49 VRB7      30.30S
TAMPA EXEC     SUNNY     64  45  48 E3        30.30S
PLANT CITY     SUNNY     64  48  55 E9        30.31S
MACDILL AFB    SUNNY     62  46  56 E10       30.28S
PETER O KNIGHT SUNNY     64  46  52 NE9       30.30S
ST PETERSBURG  SUNNY     57  45  64 E10       30.28S
SARASOTA       SUNNY     64  45  49 E15       30.26F
VENICE         FAIR      64  46  52 E12       30.28S

STATION/POSITION SKY/WX   TEMP    WIND        PRES    WAVE   SWELL
                          AIR SEA DIR/SP/G            HT/PER HT/PER
                          (F)     (DEG/KT/KT) (MB)    (FT/S) (FT/S)
CEDAR KEY                  53      90/  9/ 10 1027.0R
28.5N   84.5W              57 66  100/ 16/ 19 1025.8S   4/ 6
27.3N   84.2W                 70                N/A     5/ 6
CLEARWATER BEACH           56 58   70/  7/ 11 1025.6F
MIDDLE TAMPA BAY           53      70/ 12/ 14 1025.9F
VENICE                     63 61   70/ 10/ 13 1024.5F

$$
FLZ066-069-070-075>078-162-262-165-265-141700-
SOUTHWEST FLORIDA AND KEYS

CITY           SKY/WX    TMP DP  RH WIND       PRES   REMARKS
PUNTA GORDA    SUNNY     65  51  60 E13       30.27F
FT MYERS       SUNNY     66  49  54 E12       30.25F
SOUTHWEST INTL SUNNY     68  48  48 NE15      30.25F
NAPLES         SUNNY     68  51  54 NE13      30.24S
MARCO ISLAND   SUNNY     68  48  49 E14G22    30.23F
MARATHON       SUNNY     70  58  65 NE15      30.21R
KEY WEST NAS   SUNNY     71  54  54 NE16G24   30.21R
KEY WEST INTL  SUNNY     70  57  63 NE14G23   30.22R

STATION/POSITION SKY/WX   TEMP    WIND        PRES    WAVE   SWELL
                          AIR SEA DIR/SP/G            HT/PER HT/PER
                          (F)     (DEG/KT/KT) (MB)    (FT/S) (FT/S)
VENICE                     63 61   70/ 10/ 13 1024.5F
NAPLES                        64              1023.7R
26.0N   85.6W              68 79   90/ 19/ 25 1023.5R   6/ 6
DRY TORTUGAS     NOT AVBL
SAND KEY                   67      70/ 20/ 23 1023.1R

$$
FLZ067-068-071>074-168-172>174-141700-
SOUTHEAST FLORIDA

CITY           SKY/WX    TMP DP  RH WIND       PRES   REMARKS
W PALM BEACH   PTSUNNY   69  50  50 E15       30.27R
BOCA RATON     PTSUNNY   70  50  49 E17G25    30.25R
FT LAUDER-EXEC MOSUNNY   69  51  52 E14       30.24R
FT LAUDERDALE  PTSUNNY   69  53  56 E13G23    30.24R
POMPANO BEACH  MOSUNNY   70  54  56 NE13G23   30.25R
PEMBROKE PINES PTSUNNY   72  51  47 E13       30.25R
OPA LOCKA      PTSUNNY   72  51  47 E16G24    30.25R
MIAMI          MOSUNNY   71  51  49 E13G24    30.24R
WEST KENDALL   PTSUNNY   70  53  54 E17       30.24R
HOMESTEAD      SUNNY     71  53  53 NE18      30.22R

STATION/POSITION SKY/WX   TEMP    WIND        PRES    WAVE   SWELL
                          AIR SEA DIR/SP/G            HT/PER HT/PER
                          (F)     (DEG/KT/KT) (MB)    (FT/S) (FT/S)
PORT EVERGLADES            68      70/ 14/ 19 1024.0R
VIRGINIA KEY               68 69   60/ 15/ 19 1023.3R
LAKE WORTH                 67 73   50/ 16/ 18 1023.6R
SETTLEMENT POINT           65      40/ 12/ 13 1024.9R

$$





USA.gov is the U.S. government's official web portal to all federal, state and local government web resources and services.